Location: El Frío
(10.0713°N, 67.9111°W)
Time: 18:04:16
(UTC+00:00)

Intercosmos 25 - Pass Details

Date: 11 December 2025
Orbit: 438 x 2818 km, 82.6° (Epoch: 20 January)

Event Time Altitude Azimuth Distance (km) Brightness Sun altitude
Rises 23:21:23 0° 185° (S) 2,945 7.4 -16.8°
Reaches altitude 10° 23:23:13 10° 186° (S) 2,208 6.7 -17.2°
Maximum altitude 23:28:05 85° 274° (W) 984 4.5 -18.3°
Drops below altitude 10° 23:36:14 10° 3° (N) 3,613 7.2 -20.2°
Sets 23:39:56 0° 4° (N) 4,982 7.9 -21.0°
